838  
NZUS99 KSGF 230807  
HRRSGF  
 
HOURLY WEATHER  
NATIONAL WEATHER SERVICE SPRINGFIELD MO  
300 AM CDT TUE MAY 23 2017  
   
.....SGF CWA...
 
 
 
CITY SKY/WX TMP DP RH WIND PRES REMARKS  
SPRINGFIELD RAIN 59 54 83 W3 29.86S  
JOPLIN CLOUDY 63 59 87 W3 29.87F  
WEST PLAINS MOCLDY 58 52 80 SW3 29.87F  
ROLLA CLOUDY 56 54 93 S3 29.85F  
OSAGE BEACH CLOUDY 58 55 90 CALM 29.85F  
BRANSON CLOUDY 59 50 72 SW3 29.87F  
   
.....SURROUNDING SGF CWA...
 
 
 
CITY SKY/WX TMP DP RH WIND PRES REMARKS  
CHANUTE CLEAR 57 54 89 NW6 29.88S  
PARSONS PTCLDY 58 56 93 W5 29.89F  
COFFEYVILLE CLOUDY 60 58 92 NW9 29.88F  
EMPORIA FOG 54 54 100 W3 29.91R VSB 3/4  
GROVE OK CLOUDY 63 59 88 W5 29.89S  
ROGERS AR CLOUDY 62 57 83 W6 29.89F  
SILOAM SPRINGS CLOUDY 61 54 77 W5 29.89S  
HARRISON AR CLOUDY 58 54 86 NW3 29.87F  
NEAR YELLVILLE CLOUDY 59 50 72 CALM 29.84F  
   
.....KANSAS AND MISSOURI...
 
 
 
CITY SKY/WX TMP DP RH WIND PRES REMARKS  
KANSAS CTY INT FOG 55 55 100 SW5 29.87S VSB 1/2  
DOWNTOWN KC CLOUDY 57 56 96 S3 29.86F  
COLUMBIA CLOUDY 57 55 93 NE7 29.86F  
SEDALIA LGT RAIN 57 57 100 E8 29.86F  
ST JOSEPH CLOUDY 56 56 100 SW5 29.87S  
ST LOUIS CLOUDY 63 57 81 E7 29.87F  
SPIRIT OF STL CLOUDY 62 58 86 NE5 29.85F  
KIRKSVILLE CLOUDY 57 56 96 SW3 29.85F  
WICHITA CLOUDY 56 56 100 NW5 29.90F  
TOPEKA CLOUDY 56 56 100 W3 29.88S FOG  
OLATHE CLOUDY 54 54 100 S6 29.88F FOG  
   
.....TENNESSEE...
 
 
 
CITY SKY/WX TMP DP RH WIND PRES REMARKS  
MEMPHIS CLOUDY 66 59 78 CALM 29.85F  
NASHVILLE CLOUDY 64 54 69 NE5 29.87F  
   
.....ARKANSAS....
 
 
 
CITY SKY/WX TMP DP RH WIND PRES REMARKS  
FAYETTEVILLE CLOUDY 59 57 93 S3 29.88F  
FT SMITH CLOUDY 64 61 90 W9 29.87S  
LITTLE ROCK CLOUDY 62 60 93 W5 29.87F  
   
.....OKLAHOMA....
 
 
 
CITY SKY/WX TMP DP RH WIND PRES REMARKS  
TULSA CLOUDY 60 57 89 W6 29.89F  
PONCA CITY MOCLDY 56 55 97 CALM 29.90F FOG  
MCALESTER PTCLDY 62 61 96 SW7 29.89F FOG  
OKLAHOMA CITY CLOUDY 58 57 97 CALM 29.91F  
   
.....IOWA.........
 
 
 
CITY SKY/WX TMP DP RH WIND PRES REMARKS  
DES MOINES PTCLDY 54 50 86 NW10 29.82F  
QUAD CITIES CLOUDY 57 50 77 SW8 29.81F  
   
.....ILLINOIS.....
 
 
 
CITY SKY/WX TMP DP RH WIND PRES REMARKS  
QUINCY LGT RAIN 56 54 93 S5 29.87F  
CHICAGO CLOUDY 60 53 77 SW10 29.83F  
 
CLICK HERE TO GO TO PREVIOUS BULLETINS.

The Nexlab MO Page
The Nexlab KS Page Main Text Page